Stations météo

réclame
Mon MeteoGroup
Loch Glascarnoch, Grande-Bretagne (3031): Température de l'air & dewpoint: 21.05.2018 06:00:00 - 27.05.2018 06:00:00 (BST)Loch Glascarnoch, Grande-Bretagne (3031): Température de l'air -20cm & Température de l'air -100cm: 21.05.2018 06:00:00 - 27.05.2018 06:00:00 (BST)Loch Glascarnoch, Grande-Bretagne (3031): Vitesse du vent: 21.05.2018 06:00:00 - 27.05.2018 06:00:00 (BST)Loch Glascarnoch, Grande-Bretagne (3031): Direction du vent: 21.05.2018 06:00:00 - 27.05.2018 06:00:00 (BST)Loch Glascarnoch, Grande-Bretagne (3031): reduced air pressure: 21.05.2018 06:00:00 - 27.05.2018 06:00:00 (BST)Loch Glascarnoch, Grande-Bretagne (3031): visibility: 21.05.2018 06:00:00 - 27.05.2018 06:00:00 (BST)Loch Glascarnoch, Grande-Bretagne (3031): Ensoleillement: 21.05.2018 06:00:00 - 27.05.2018 06:00:00 (BST)Loch Glascarnoch, Grande-Bretagne (3031): Quantités de précipitations: 21.05.2018 06:00:00 - 27.05.2018 06:00:00 (BST)
Date & Time tt [°C] td [°C] tt -20cm [°C] tt -100cm [°C] ff [km/h] ff [knt] dd ppp [hPa] vv [km] sd [min] rr [mm]
27.05.2018 06:00:00 9,9 7,5 - - 15 8 ESE 1027,3 40 6 0,0
27.05.2018 05:00:00 6,2 6,2 - - 18 10 ENE 1028,5 6 0 0,0
27.05.2018 04:00:00 4,3 4,0 - - 4 2 W 1029,7 0,3 0 0,0
27.05.2018 03:00:00 5,2 4,9 - - 2 1 SSE 1030,7 0,1 0 0,0
27.05.2018 02:00:00 6,9 6,6 - - 9 5 NE 1031,2 0,4 0 0,0
27.05.2018 01:00:00 7,4 6,9 - - 9 5 N 1031,3 10 - 0,0
27.05.2018 00:00:00 8,1 7,2 - - 5 3 E 1031,6 10 0 0,0
26.05.2018 23:00:00 9,4 7,2 - - 13 7 ENE 1031,4 18 0 0,0
26.05.2018 22:00:00 13,7 5,7 - - 8 4 S 1031,1 50 18 0,0
26.05.2018 21:00:00 16,1 5,9 - - 16 9 SE 1030,3 50 60 0,0
26.05.2018 20:00:00 17,3 6,7 - - 24 13 E 1030,0 40 60 0,0
26.05.2018 19:00:00 19,1 6,6 - - 28 15 ESE 1029,6 30 60 0,0
26.05.2018 18:00:00 19,8 6,6 - - 29 16 ESE 1029,7 35 60 0,0
26.05.2018 17:00:00 21,0 11,0 - - 18 10 ESE 1029,6 35 60 0,0
26.05.2018 16:00:00 21,0 9,9 - - 18 10 SE 1029,8 45 60 0,0
26.05.2018 15:00:00 20,7 9,4 - - 21 11 SE 1030,1 26 60 0,0
26.05.2018 14:00:00 19,7 9,1 - - 18 10 SE 1030,5 30 60 0,0
26.05.2018 13:00:00 17,6 9,0 - - 22 12 ESE 1030,7 40 60 0,0
26.05.2018 12:00:00 16,0 8,7 - - 22 12 SE 1031,2 23 60 0,0
26.05.2018 11:00:00 14,8 8,9 - - 13 7 ESE 1031,6 20 60 0,0
26.05.2018 10:00:00 12,7 8,7 11,9 10,0 9 5 E 1032,2 30 54 0,0
26.05.2018 09:00:00 10,0 7,7 - - 11 6 ESE 1032,6 21 30 0,0
26.05.2018 08:00:00 9,5 7,6 - - 15 8 SSE 1032,4 17 60 0,0
26.05.2018 07:00:00 9,4 7,9 - - 22 12 SE 1032,2 16 60 0,0
26.05.2018 06:00:00 8,5 7,3 - - 16 9 SSE 1032,0 14 0 0,0
26.05.2018 05:00:00 8,0 6,9 - - 15 8 S 1031,9 11 0 0,0
26.05.2018 04:00:00 8,3 6,8 - - 21 11 SSE 1031,9 14 0 0,0
26.05.2018 03:00:00 8,6 7,0 - - 16 9 SE 1032,2 19 0 0,0
26.05.2018 02:00:00 8,6 7,1 - - 13 7 SSE 1032,4 19 0 0,0
26.05.2018 01:00:00 8,3 6,4 - - 4 2 E 1032,3 27 - 0,0
26.05.2018 00:00:00 8,9 7,1 - - 16 9 E 1032,1 27 0 0,0
25.05.2018 23:00:00 9,9 7,8 - - 21 11 E 1031,8 35 0 0,0
25.05.2018 22:00:00 11,8 7,6 - - 18 10 NE 1031,2 35 18 0,0
25.05.2018 21:00:00 13,0 8,2 - - 18 10 ENE 1030,2 40 60 0,0
25.05.2018 20:00:00 14,9 9,4 - - 24 13 E 1029,5 40 54 0,0
25.05.2018 19:00:00 15,6 9,6 - - 22 12 E 1029,2 45 24 0,0
25.05.2018 18:00:00 17,1 9,8 - - 22 12 E 1028,9 50 54 0,0
25.05.2018 17:00:00 16,9 9,2 - - 22 12 ESE 1028,8 35 42 0,0
25.05.2018 16:00:00 17,7 9,2 - - 18 10 E 1028,6 35 48 0,0
25.05.2018 15:00:00 17,9 9,0 - - 18 10 E 1028,4 29 36 0,0
25.05.2018 14:00:00 18,8 10,0 - - 16 9 ESE 1028,4 40 36 0,0
25.05.2018 13:00:00 18,3 9,9 - - 21 11 ESE 1028,4 19 12 0,0
25.05.2018 12:00:00 16,2 9,4 - - 13 7 E 1028,7 45 24 0,0
25.05.2018 11:00:00 14,6 10,2 - - 11 6 WNW 1028,9 30 54 0,0
25.05.2018 10:00:00 12,9 9,9 11,7 9,7 16 9 WNW 1029,2 17 18 0,0
25.05.2018 09:00:00 10,4 9,3 - - 21 11 WNW 1029,4 12 0 0,0
25.05.2018 08:00:00 10,0 9,2 - - 26 14 WNW 1029,0 7 0 0,0
25.05.2018 07:00:00 10,4 9,7 - - 22 12 WNW 1028,2 10 0 0,0
25.05.2018 06:00:00 9,2 9,1 - - 21 11 WNW 1027,9 3,2 0 0,0
25.05.2018 05:00:00 9,2 9,0 - - 21 11 WNW 1027,6 2,3 0 0,0
25.05.2018 04:00:00 9,5 9,0 - - 16 9 WNW 1027,0 5 0 0,0
25.05.2018 03:00:00 9,6 8,9 - - 15 8 WNW 1026,7 10 0 0,0
25.05.2018 02:00:00 9,5 8,1 - - 5 3 W 1026,7 13 0 0,0
25.05.2018 01:00:00 9,8 7,6 - - 9 5 WNW 1026,6 13 - 0,0
25.05.2018 00:00:00 11,4 8,5 - - 15 8 WNW 1026,2 15 0 0,0
24.05.2018 23:00:00 12,3 9,2 - - 18 10 WNW 1025,9 19 0 0,0
24.05.2018 22:00:00 11,9 8,7 - - 21 11 WNW 1025,3 20 0 0,0
24.05.2018 21:00:00 13,8 9,2 - - 26 14 WNW 1024,5 20 6 0,0
24.05.2018 20:00:00 16,7 9,9 - - 18 10 WNW 1023,5 30 18 0,0
24.05.2018 19:00:00 18,0 10,1 - - 21 11 WNW 1023,0 35 30 0,0
24.05.2018 18:00:00 17,2 9,6 - - 26 14 WNW 1023,1 40 30 0,0
24.05.2018 17:00:00 18,7 9,7 - - 28 15 WNW 1022,7 40 30 0,0
24.05.2018 16:00:00 20,2 8,5 - - 16 9 WNW 1022,4 45 18 0,0
24.05.2018 15:00:00 21,3 4,9 - - 9 5 WNW 1022,4 40 54 0,0
24.05.2018 14:00:00 21,3 5,0 - - 8 4 S 1022,8 45 60 0,0
24.05.2018 13:00:00 20,7 5,1 - - 13 7 S 1023,2 40 60 0,0
24.05.2018 12:00:00 20,0 6,2 - - 8 4 SE 1023,5 35 60 0,0
24.05.2018 11:00:00 18,7 7,2 - - 8 4 E 1024,0 30 60 0,0
24.05.2018 10:00:00 16,7 7,4 10,9 9,5 9 5 E 1024,5 35 60 0,0
24.05.2018 09:00:00 13,8 10,4 - - 8 4 E 1025,0 35 60 0,0
24.05.2018 08:00:00 9,6 9,6 - - 5 3 ESE 1025,6 18 54 0,0
24.05.2018 07:00:00 6,1 6,1 - - 4 2 E 1026,3 - 12 0,0
24.05.2018 06:00:00 3,4 3,3 - - 4 2 E 1026,9 0,1 0 0,0
24.05.2018 05:00:00 2,7 2,5 - - 4 2 ESE 1027,3 0,1 0 0,0
24.05.2018 04:00:00 3,2 2,9 - - 4 2 E 1027,6 0,1 0 0,0
24.05.2018 03:00:00 3,9 3,5 - - 0 0 N 1027,7 0,4 0 0,0
24.05.2018 02:00:00 5,1 4,7 - - 5 3 ENE 1027,8 16 0 0,0
24.05.2018 01:00:00 5,9 5,4 - - 2 1 NE 1028,0 23 - 0,0
24.05.2018 00:00:00 6,3 5,3 - - 4 2 SE 1027,9 27 0 0,0
23.05.2018 23:00:00 8,4 6,0 - - 2 1 SSE 1027,7 40 0 0,0
23.05.2018 22:00:00 10,9 7,1 - - 4 2 NW 1027,2 45 12 0,0
23.05.2018 21:00:00 13,1 7,7 - - 9 5 NW 1026,5 50 54 0,0
23.05.2018 20:00:00 14,4 8,3 - - 16 9 E 1026,1 45 60 0,0
23.05.2018 19:00:00 17,1 8,5 - - 13 7 ESE 1025,3 35 60 0,0
23.05.2018 18:00:00 17,4 9,1 - - 16 9 SE 1025,5 35 60 0,0
23.05.2018 17:00:00 18,4 8,8 - - 16 9 ESE 1025,6 30 60 0,0
23.05.2018 16:00:00 17,9 8,0 - - 16 9 E 1025,9 50 60 0,0
23.05.2018 15:00:00 17,4 8,3 - - 13 7 E 1026,4 40 54 0,0
23.05.2018 14:00:00 15,9 6,8 - - 11 6 E 1026,8 35 36 0,0
23.05.2018 13:00:00 15,5 7,7 - - 13 7 E 1027,0 27 42 0,0
23.05.2018 12:00:00 14,4 6,9 - - 11 6 SE 1027,5 35 48 0,0
23.05.2018 11:00:00 12,4 7,3 - - 9 5 E 1027,9 50 54 0,0
23.05.2018 10:00:00 10,2 6,8 10,2 9,4 9 5 E 1028,3 45 18 0,0
23.05.2018 09:00:00 8,6 6,0 - - 11 6 ESE 1028,3 45 0 0,0
23.05.2018 08:00:00 7,5 5,1 - - 8 4 ESE 1028,3 45 0 0,0
23.05.2018 07:00:00 7,2 5,3 - - 9 5 ESE 1028,0 40 0 0,0
23.05.2018 06:00:00 6,9 5,2 - - 8 4 E 1027,6 45 0 0,0
23.05.2018 05:00:00 6,7 5,0 - - 9 5 SE 1027,6 50 0 0,0
23.05.2018 04:00:00 6,9 5,1 - - 5 3 SSE 1027,6 45 0 0,0
23.05.2018 03:00:00 7,1 5,1 - - 5 3 S 1027,6 40 0 0,0
23.05.2018 02:00:00 7,2 5,6 - - 8 4 SE 1027,7 40 0 0,0
23.05.2018 01:00:00 7,2 5,5 - - 9 5 SE 1027,6 40 - 0,0
23.05.2018 00:00:00 7,1 5,3 - - 8 4 SE 1027,7 35 0 0,0
22.05.2018 23:00:00 7,2 4,9 - - 8 4 ESE 1027,6 40 0 0,0
22.05.2018 22:00:00 7,4 4,9 - - 11 6 SE 1027,6 45 0 0,0
22.05.2018 21:00:00 7,9 5,0 - - 11 6 SE 1027,2 40 0 0,0
22.05.2018 20:00:00 8,3 5,1 - - 13 7 ESE 1026,9 50 0 0,0
22.05.2018 19:00:00 8,4 5,1 - - 21 11 E 1026,8 35 0 0,0
22.05.2018 18:00:00 8,4 5,4 - - 22 12 E 1027,0 45 0 0,0
22.05.2018 17:00:00 9,1 5,8 - - 22 12 E 1026,9 30 0 0,0
22.05.2018 16:00:00 8,9 5,5 - - 24 13 E 1027,0 30 0 0,0
22.05.2018 15:00:00 9,8 6,0 - - 24 13 E 1027,0 45 0 0,0
22.05.2018 14:00:00 9,0 5,4 - - 21 11 E 1027,2 40 0 0,0
22.05.2018 13:00:00 9,1 5,4 - - 22 12 E 1026,7 50 0 0,0
22.05.2018 12:00:00 8,8 4,9 - - 28 15 E 1026,7 30 6 0,0
22.05.2018 11:00:00 8,9 5,3 - - 26 14 E 1027,1 40 0 0,0
22.05.2018 10:00:00 7,3 4,5 10,2 9,5 26 14 E 1027,4 50 0 0,0
22.05.2018 09:00:00 6,5 3,9 - - 24 13 ENE 1027,9 50 0 0,0
22.05.2018 08:00:00 6,2 3,8 - - 29 16 E 1027,3 50 48 0,0
22.05.2018 07:00:00 5,8 3,7 - - 24 13 ENE 1027,5 45 0 0,0
22.05.2018 06:00:00 5,3 3,1 - - 22 12 ENE 1027,7 50 0 0,0
22.05.2018 05:00:00 5,1 3,0 - - 16 9 ENE 1027,5 50 0 0,0
22.05.2018 04:00:00 5,1 3,0 - - 15 8 NE 1027,5 50 0 0,0
22.05.2018 03:00:00 4,7 3,2 - - 4 2 ENE 1027,3 50 0 0,0
22.05.2018 02:00:00 3,7 2,1 - - 4 2 NNE 1027,2 50 0 0,0
22.05.2018 01:00:00 5,5 3,6 - - 9 5 ESE 1026,8 50 - 0,0
22.05.2018 00:00:00 5,8 3,6 - - 8 4 ESE 1026,4 50 0 0,0
21.05.2018 23:00:00 5,5 4,7 - - 4 2 ENE 1026,1 50 0 0,0
21.05.2018 22:00:00 5,4 4,8 - - 9 5 WNW 1025,9 35 0 0,2
21.05.2018 21:00:00 5,3 4,6 - - 16 9 W 1025,2 45 0 0,2
21.05.2018 20:00:00 5,3 4,8 - - 21 11 W 1024,8 19 0 1,0
21.05.2018 19:00:00 5,4 5,0 - - 24 13 W 1024,0 18 0 1,0
21.05.2018 18:00:00 6,7 6,1 - - 24 13 W 1022,9 11 0 1,0
21.05.2018 17:00:00 6,7 6,4 - - 21 11 WNW 1022,3 6 0 0,6
21.05.2018 16:00:00 6,9 6,6 - - 24 13 W 1021,9 5 0 0,4
21.05.2018 15:00:00 7,2 7,0 - - 26 14 W 1021,2 4,4 0 0,4
21.05.2018 14:00:00 7,1 6,8 - - 26 14 W 1020,5 4,7 0 0,6
21.05.2018 13:00:00 7,5 6,9 - - 28 15 W 1019,8 3,3 0 0,2
21.05.2018 12:00:00 8,2 7,8 - - 24 13 WNW 1019,1 2,9 0 0,2
21.05.2018 11:00:00 8,3 8,0 - - 22 12 WNW 1018,6 4,0 0 0,6
21.05.2018 10:00:00 8,5 8,3 10,9 9,4 21 11 WNW 1018,3 5 0 1,0
21.05.2018 09:00:00 8,3 8,0 - - 26 14 WNW 1018,0 5 0 1,0
21.05.2018 08:00:00 8,7 8,5 - - 21 11 WNW 1017,5 8 0 2,2
21.05.2018 07:00:00 9,0 8,9 - - 16 9 WNW 1017,0 4,4 0 1,0
21.05.2018 06:00:00 9,3 9,2 - - 13 7 WNW 1016,6 6 0 1,8

tt = Température de l'air
td = dewpoint
tt -20cm = Température de l'air -20cm
tt -100cm = Température de l'air -100cm
ff = Vitesse du vent
dd = Direction du vent
ppp = reduced air pressure
vv = visibility
sd = Ensoleillement
rr = Quantités de précipitations

stations d'obs. à proximité